QPF
0.08 0.06 0.04 0.05 0.06 0.06 0.10 0.10 0.10 0.10 0.12 0.13 0.13 0.12 0.10 0.10 0.12 0.10 0.09 0.08 0.06 0.04 0.04 0.04 0.04 0.03 0.02 0.02 0.02 0.03 0.03 0.04 0.05 0.05 0.04 0.04 0.05 0.06
0.06 0.05 0.04 0.04 0.05 0.06 0.07 0.10 0.12 0.12 0.13 0.17 0.18 0.14 0.12 0.11 0.16 0.16 0.11 0.09 0.07 0.05 0.05 0.04 0.04 0.03 0.02 0.02 0.02 0.02 0.02 0.03 0.03 0.04 0.05 0.04 0.03 0.04
0.04 0.03 0.04 0.06 0.07 0.06 0.07 0.09 0.11 0.11 0.09 0.13 0.18 0.16 0.13 0.13 0.15 0.20 0.16 0.11 0.09 0.07 0.05 0.04 0.03 0.03 0.03 0.02 0.01 0.01 0.01 0.02 0.03 0.03 0.03 0.03 0.03 0.04
0.04 0.04 0.05 0.06 0.07 0.07 0.09 0.11 0.12 0.12 0.09 0.10 0.15 0.15 0.12 0.11 0.12 0.15 0.15 0.13 0.11 0.09 0.06 0.05 0.05 0.05 0.04 0.03 0.02 0.02 0.01 0.01 0.02 0.03 0.03 0.04 0.05 0.05
0.03 0.04 0.04 0.05 0.07 0.09 0.10 0.11 0.12 0.12 0.12 0.09 0.10 0.12 0.09 0.07 0.06 0.06 0.07 0.07 0.07 0.07 0.06 0.06 0.06 0.05 0.05 0.04 0.03 0.03 0.02 0.01 0.01 0.02 0.05 0.08 0.10 0.09
0.02 0.03 0.03 0.04 0.06 0.08 0.09 0.10 0.11 0.13 0.13 0.10 0.08 0.07 0.06 0.06 0.05 0.05 0.04 0.03 0.04 0.03 0.04 0.05 0.05 0.06 0.06 0.05 0.05 0.05 0.04 0.03 0.03 0.02 0.04 0.06 0.08 0.10
0.03 0.03 0.04 0.04 0.04 0.06 0.07 0.07 0.07 0.08 0.08 0.07 0.06 0.06 0.07 0.08 0.06 0.05 0.04 0.03 0.03 0.03 0.02 0.02 0.03 0.04 0.05 0.06 0.06 0.05 0.05 0.05 0.05 0.04 0.03 0.03 0.04 0.05
0.03 0.03 0.04 0.04 0.03 0.04 0.06 0.06 0.05 0.06 0.06 0.07 0.08 0.08 0.07 0.06 0.04 0.04 0.03 0.03 0.03 0.03 0.02 0.02 0.02 0.02 0.02 0.03 0.03 0.03 0.03 0.03 0.03 0.03 0.03 0.03 0.03 0.03
0.03 0.04 0.04 0.04 0.04 0.03 0.04 0.05 0.05 0.05 0.06 0.07 0.08 0.08 0.07 0.06 0.05 0.04 0.04 0.04 0.03 0.03 0.03 0.02 0.01 0.01 0.02 0.02 0.02 0.02 0.02 0.02 0.02 0.03 0.02 0.02 0.02 0.01
0.04 0.04 0.04 0.04 0.04 0.04 0.04 0.03 0.03 0.07 0.08 0.06 0.06 0.06 0.06 0.06 0.05 0.04 0.04 0.04 0.03 0.03 0.03 0.01 0.01 0.01 0.01 0.02 0.02 0.02 0.03 0.04 0.04 0.03 0.03 0.03 0.03 0.02
0.05 0.05 0.05 0.04 0.05 0.06 0.05 0.03 0.03 0.04 0.05 0.04 0.04 0.04 0.05 0.05 0.05 0.05 0.05 0.05 0.03 0.02 0.02 0.02 0.01 0.02 0.03 0.03 0.02 0.01 0.01 0.03 0.04 0.03 0.03 0.03 0.04 0.04
0.08 0.07 0.06 0.05 0.05 0.05 0.04 0.03 0.02 0.03 0.03 0.03 0.03 0.03 0.03 0.03 0.03 0.02 0.02 0.03 0.03 0.02 0.02 0.02 0.01 0.02 0.02 0.02 0.01 0.01 0.01 0.02 0.02 0.02 0.03 0.04 0.05 0.04
0.08 0.06 0.05 0.04 0.03 0.03 0.03 0.03 0.02 0.02 0.02 0.04 0.05 0.04 0.03 0.02 0.02 0.02 0.03 0.03 0.03 0.02 0.01 0.01 0.01 0.01 0.01 0.00 0.00 0.01 0.01 0.03 0.03 0.03 0.02 0.02 0.02 0.03
0.07 0.06 0.05 0.04 0.04 0.03 0.03 0.02 0.03 0.02 0.02 0.02 0.02 0.01 0.02 0.02 0.03 0.03 0.02 0.02 0.01 0.01 0.01 0.01 0.01 0.01 0.00 0.00 0.00 0.00 0.01 0.02 0.03 0.03 0.02 0.01 0.02 0.02
0.06 0.04 0.03 0.03 0.03 0.03 0.02 0.01 0.02 0.02 0.01 0.01 0.01 0.01 0.01 0.01 0.02 0.02 0.01 0.01 0.01 0.00 0.00 0.00 0.01 0.01 0.01 0.00 0.00 0.00 0.00 0.01 0.01 0.01 0.01 0.02 0.02 0.02
0.04 0.03 0.03 0.02 0.02 0.02 0.01 0.01 0.01 0.02 0.02 0.02 0.02 0.01 0.01 0.01 0.01 0.01 0.01 0.00 0.00 0.00 0.00 0.00 0.01 0.01 0.01 0.01 0.00 0.00 0.00 0.01 0.01 0.01 0.01 0.01 0.01 0.02
0.03 0.02 0.02 0.02 0.02 0.02 0.01 0.01 0.01 0.01 0.01 0.01 0.01 0.01 0.01 0.01 0.01 0.00 0.00 0.00 0.00 0.00 0.00 0.00 0.00 0.00 0.00 0.00 0.00 0.00 0.00 0.00 0.00 0.00 0.00 0.00 0.01 0.01
0.01 0.01 0.01 0.01 0.01 0.01 0.01 0.01 0.01 0.01 0.01 0.01 0.01 0.01 0.01 0.01 0.01 0.01 0.01 0.01 0.01 0.01 0.01 0.01 0.01 0.01 0.01 0.00 0.00 0.00 0.00 0.00 0.01 0.01 0.01 0.01 0.01 0.02
0.01 0.00 0.01 0.01 0.01 0.01 0.02 0.02 0.02 0.02 0.02 0.02 0.02 0.01 0.01 0.01 0.01 0.01 0.02 0.01 0.01 0.01 0.01 0.02 0.01 0.01 0.01 0.01 0.00 0.01 0.01 0.01 0.01 0.01 0.02 0.02 0.02 0.03
0.01 0.01 0.01 0.02 0.03 0.03 0.03 0.03 0.03 0.03 0.03 0.03 0.03 0.02 0.02 0.02 0.02 0.02 0.02 0.02 0.02 0.02 0.02 0.02 0.01 0.01 0.01 0.01 0.01 0.01 0.01 0.02 0.02 0.02 0.02 0.03 0.03 0.03
0.01 0.01 0.02 0.03 0.03 0.05 0.05 0.04 0.03 0.03 0.04 0.03 0.03 0.03 0.03 0.03 0.03 0.02 0.01 0.02 0.02 0.02 0.01 0.01 0.01 0.02 0.02 0.02 0.01 0.01 0.01 0.02 0.02 0.02 0.02 0.03 0.03 0.02
0.02 0.02 0.02 0.02 0.04 0.06 0.07 0.06 0.04 0.04 0.04 0.04 0.04 0.04 0.04 0.04 0.03 0.03 0.03 0.02 0.02 0.02 0.02 0.02 0.02 0.02 0.02 0.01 0.01 0.01 0.01 0.01 0.02 0.03 0.03 0.03 0.03 0.02
0.02 0.02 0.02 0.02 0.03 0.04 0.04 0.05 0.06 0.05 0.05 0.05 0.07 0.08 0.09 0.07 0.05 0.04 0.04 0.03 0.03 0.03 0.03 0.03 0.03 0.02 0.02 0.02 0.02 0.02 0.02 0.01 0.02 0.02 0.02 0.03 0.03 0.02
MSLP
1013.70 1013.85 1014.07 1014.33 1014.60 1014.87 1015.12 1015.36 1015.60 1015.83 1016.07 1016.33 1016.60 1016.84 1017.06 1017.21 1017.29 1017.31 1017.26 1017.19 1017.13 1017.13 1017.22 1017.42 1017.74 1018.16 1018.66 1019.22 1019.79 1020.35 1020.88 1021.37 1021.83 1022.27 1022.69 1023.11 1023.52 1023.91
1013.01 1013.07 1013.19 1013.35 1013.55 1013.77 1014.02 1014.28 1014.58 1014.91 1015.28 1015.68 1016.10 1016.51 1016.87 1017.16 1017.37 1017.48 1017.53 1017.52 1017.52 1017.55 1017.67 1017.89 1018.22 1018.66 1019.18 1019.75 1020.33 1020.91 1021.46 1021.96 1022.43 1022.86 1023.27 1023.67 1024.05 1024.42
1012.47 1012.41 1012.41 1012.45 1012.54 1012.69 1012.88 1013.14 1013.46 1013.86 1014.34 1014.87 1015.44 1016.02 1016.55 1017.01 1017.37 1017.64 1017.81 1017.93 1018.02 1018.13 1018.30 1018.56 1018.92 1019.37 1019.88 1020.45 1021.02 1021.58 1022.10 1022.59 1023.03 1023.45 1023.83 1024.21 1024.56 1024.90
1012.09 1011.92 1011.79 1011.71 1011.68 1011.72 1011.83 1012.05 1012.37 1012.81 1013.35 1013.99 1014.69 1015.42 1016.12 1016.75 1017.30 1017.74 1018.08 1018.35 1018.57 1018.80 1019.05 1019.37 1019.76 1020.21 1020.72 1021.25 1021.78 1022.28 1022.76 1023.20 1023.60 1023.97 1024.33 1024.67 1025.01 1025.33
1011.87 1011.60 1011.36 1011.15 1011.00 1010.93 1010.96 1011.11 1011.40 1011.84 1012.42 1013.13 1013.93 1014.77 1015.62 1016.42 1017.14 1017.76 1018.29 1018.73 1019.11 1019.47 1019.84 1020.22 1020.65 1021.10 1021.58 1022.06 1022.53 1022.96 1023.36 1023.73 1024.07 1024.40 1024.72 1025.04 1025.36 1025.68
1011.77 1011.44 1011.10 1010.80 1010.54 1010.37 1010.31 1010.39 1010.63 1011.04 1011.62 1012.36 1013.21 1014.15 1015.11 1016.04 1016.92 1017.72 1018.42 1019.04 1019.58 1020.08 1020.56 1021.02 1021.48 1021.94 1022.38 1022.81 1023.20 1023.55 1023.87 1024.16 1024.44 1024.72 1025.00 1025.31 1025.63 1025.95
1011.74 1011.37 1010.98 1010.61 1010.29 1010.04 1009.91 1009.92 1010.10 1010.47 1011.03 1011.76 1012.63 1013.61 1014.63 1015.67 1016.66 1017.60 1018.45 1019.23 1019.92 1020.55 1021.13 1021.66 1022.16 1022.62 1023.03 1023.40 1023.72 1024.00 1024.24 1024.46 1024.69 1024.92 1025.19 1025.48 1025.81 1026.14
1011.72 1011.34 1010.95 1010.55 1010.20 1009.92 1009.74 1009.71 1009.84 1010.17 1010.68 1011.38 1012.23 1013.21 1014.25 1015.33 1016.39 1017.42 1018.38 1019.27 1020.08 1020.81 1021.48 1022.07 1022.61 1023.07 1023.47 1023.79 1024.06 1024.28 1024.47 1024.65 1024.83 1025.04 1025.29 1025.58 1025.91 1026.25
1011.66 1011.32 1010.95 1010.59 1010.24 1009.97 1009.79 1009.74 1009.84 1010.12 1010.59 1011.24 1012.04 1012.97 1013.99 1015.06 1016.14 1017.19 1018.21 1019.16 1020.04 1020.84 1021.56 1022.20 1022.76 1023.24 1023.63 1023.94 1024.19 1024.39 1024.55 1024.71 1024.89 1025.09 1025.34 1025.63 1025.95 1026.28
1011.56 1011.28 1010.98 1010.68 1010.39 1010.16 1010.01 1009.97 1010.07 1010.33 1010.74 1011.33 1012.06 1012.91 1013.87 1014.87 1015.91 1016.94 1017.94 1018.90 1019.79 1020.62 1021.36 1022.03 1022.61 1023.10 1023.51 1023.84 1024.10 1024.31 1024.49 1024.67 1024.86 1025.08 1025.33 1025.62 1025.93 1026.25
1011.43 1011.24 1011.03 1010.82 1010.62 1010.47 1010.37 1010.37 1010.48 1010.72 1011.09 1011.61 1012.25 1013.01 1013.86 1014.77 1015.71 1016.66 1017.60 1018.51 1019.37 1020.17 1020.91 1021.58 1022.18 1022.69 1023.13 1023.50 1023.80 1024.06 1024.29 1024.52 1024.75 1025.00 1025.27 1025.55 1025.85 1026.14
1011.29 1011.19 1011.09 1010.98 1010.89 1010.83 1010.81 1010.86 1010.99 1011.22 1011.56 1012.01 1012.57 1013.22 1013.95 1014.73 1015.55 1016.39 1017.22 1018.03 1018.82 1019.57 1020.28 1020.93 1021.53 1022.07 1022.55 1022.97 1023.34 1023.67 1023.98 1024.26 1024.55 1024.83 1025.12 1025.41 1025.68 1025.93
1011.14 1011.15 1011.15 1011.15 1011.17 1011.20 1011.26 1011.36 1011.52 1011.76 1012.07 1012.46 1012.93 1013.47 1014.08 1014.73 1015.41 1016.11 1016.82 1017.52 1018.21 1018.89 1019.54 1020.16 1020.76 1021.32 1021.84 1022.32 1022.76 1023.17 1023.55 1023.90 1024.24 1024.56 1024.86 1025.14 1025.39 1025.60
1011.00 1011.09 1011.19 1011.29 1011.40 1011.51 1011.64 1011.79 1011.98 1012.21 1012.50 1012.84 1013.24 1013.69 1014.19 1014.72 1015.27 1015.84 1016.43 1017.01 1017.60 1018.19 1018.79 1019.37 1019.95 1020.52 1021.08 1021.60 1022.11 1022.58 1023.03 1023.44 1023.82 1024.16 1024.47 1024.73 1024.95 1025.12
1010.82 1010.99 1011.17 1011.34 1011.52 1011.69 1011.87 1012.06 1012.26 1012.50 1012.77 1013.08 1013.43 1013.82 1014.23 1014.67 1015.12 1015.59 1016.07 1016.55 1017.05 1017.57 1018.10 1018.65 1019.21 1019.77 1020.34 1020.90 1021.44 1021.95 1022.43 1022.88 1023.27 1023.62 1023.92 1024.16 1024.36 1024.49
1010.58 1010.80 1011.03 1011.25 1011.47 1011.68 1011.88 1012.09 1012.31 1012.54 1012.81 1013.11 1013.43 1013.78 1014.15 1014.54 1014.93 1015.34 1015.75 1016.17 1016.60 1017.06 1017.54 1018.04 1018.57 1019.12 1019.68 1020.24 1020.79 1021.31 1021.80 1022.24 1022.62 1022.96 1023.23 1023.45 1023.61 1023.73
1010.23 1010.48 1010.73 1010.98 1011.20 1011.42 1011.63 1011.84 1012.06 1012.30 1012.58 1012.88 1013.21 1013.56 1013.93 1014.31 1014.69 1015.07 1015.46 1015.85 1016.25 1016.67 1017.12 1017.59 1018.09 1018.60 1019.14 1019.67 1020.19 1020.68 1021.14 1021.55 1021.90 1022.19 1022.43 1022.61 1022.75 1022.85
1009.75 1010.01 1010.26 1010.49 1010.71 1010.91 1011.10 1011.30 1011.53 1011.78 1012.07 1012.40 1012.76 1013.15 1013.55 1013.97 1014.38 1014.78 1015.18 1015.58 1015.98 1016.39 1016.81 1017.26 1017.72 1018.20 1018.69 1019.18 1019.65 1020.09 1020.49 1020.84 1021.14 1021.38 1021.57 1021.72 1021.83 1021.93
1009.14 1009.39 1009.62 1009.83 1010.01 1010.18 1010.35 1010.54 1010.76 1011.03 1011.35 1011.71 1012.12 1012.57 1013.03 1013.50 1013.97 1014.43 1014.87 1015.29 1015.71 1016.13 1016.55 1016.98 1017.42 1017.87 1018.31 1018.74 1019.15 1019.53 1019.86 1020.15 1020.38 1020.57 1020.72 1020.83 1020.93 1021.03
1008.44 1008.66 1008.86 1009.02 1009.17 1009.30 1009.45 1009.62 1009.84 1010.13 1010.47 1010.88 1011.34 1011.85 1012.38 1012.92 1013.45 1013.97 1014.46 1014.94 1015.39 1015.83 1016.26 1016.68 1017.10 1017.52 1017.92 1018.31 1018.66 1018.98 1019.26 1019.48 1019.66 1019.81 1019.92 1020.01 1020.10 1020.20
1007.67 1007.87 1008.02 1008.15 1008.25 1008.35 1008.47 1008.63 1008.85 1009.15 1009.52 1009.97 1010.48 1011.03 1011.62 1012.22 1012.81 1013.38 1013.92 1014.44 1014.92 1015.39 1015.84 1016.27 1016.69 1017.09 1017.48 1017.83 1018.15 1018.43 1018.66 1018.85 1019.00 1019.11 1019.21 1019.29 1019.38 1019.49
1006.88 1007.04 1007.16 1007.24 1007.31 1007.38 1007.48 1007.64 1007.86 1008.17 1008.56 1009.03 1009.57 1010.15 1010.77 1011.40 1012.03 1012.63 1013.21 1013.76 1014.27 1014.77 1015.24 1015.69 1016.12 1016.53 1016.92 1017.27 1017.58 1017.85 1018.06 1018.24 1018.38 1018.49 1018.58 1018.67 1018.78 1018.90
1006.06 1006.19 1006.29 1006.34 1006.39 1006.45 1006.54 1006.69 1006.92 1007.23 1007.63 1008.10 1008.64 1009.24 1009.86 1010.49 1011.12 1011.73 1012.32 1012.88 1013.42 1013.94 1014.44 1014.92 1015.39 1015.83 1016.23 1016.61 1016.94 1017.22 1017.45 1017.64 1017.79 1017.91 1018.03 1018.14 1018.26 1018.40
Thickness
5748 5747 5745 5745 5744 5743 5740 5736 5729 5720 5719 5722 5723 5724 5723 5721 5719 5717 5715 5713 5711 5710 5709 5707 5705 5704 5702 5701 5699 5698 5697 5695 5693 5691 5689 5687 5684 5682
5747 5746 5744 5743 5742 5741 5739 5736 5733 5726 5719 5720 5720 5720 5720 5717 5714 5713 5710 5709 5706 5704 5703 5702 5700 5699 5697 5696 5694 5693 5692 5690 5688 5686 5684 5682 5679 5677
5746 5744 5742 5742 5740 5738 5737 5734 5731 5727 5720 5717 5717 5716 5714 5712 5709 5707 5705 5703 5700 5698 5697 5696 5694 5693 5691 5690 5689 5688 5686 5684 5683 5680 5678 5676 5673 5671
5743 5742 5740 5740 5738 5736 5734 5732 5729 5726 5721 5714 5712 5710 5708 5706 5703 5700 5699 5697 5694 5692 5691 5689 5688 5687 5685 5684 5683 5681 5680 5678 5676 5674 5672 5669 5667 5664
5741 5739 5738 5737 5734 5733 5731 5728 5726 5725 5720 5714 5709 5706 5702 5700 5696 5694 5692 5690 5688 5685 5683 5682 5681 5679 5678 5677 5675 5674 5673 5671 5669 5667 5665 5662 5660 5657
5739 5737 5736 5734 5732 5730 5728 5725 5723 5719 5716 5711 5706 5701 5697 5695 5691 5687 5683 5682 5680 5679 5677 5675 5673 5672 5670 5669 5668 5667 5665 5664 5662 5659 5657 5654 5652 5649
5735 5734 5733 5731 5730 5728 5725 5722 5719 5714 5710 5706 5701 5696 5692 5689 5686 5683 5679 5675 5673 5672 5670 5668 5666 5664 5663 5661 5660 5659 5658 5656 5654 5651 5649 5646 5643 5641
5730 5728 5727 5726 5725 5723 5721 5719 5716 5711 5706 5701 5697 5693 5690 5687 5683 5680 5675 5670 5666 5666 5664 5660 5659 5657 5656 5654 5652 5651 5650 5648 5645 5643 5640 5637 5634 5631
5725 5723 5722 5720 5719 5717 5715 5713 5710 5707 5705 5701 5695 5691 5688 5685 5680 5675 5671 5667 5664 5662 5658 5653 5652 5649 5649 5647 5645 5644 5642 5640 5637 5634 5631 5628 5625 5622
5721 5718 5715 5713 5712 5710 5707 5705 5702 5700 5699 5696 5693 5690 5687 5684 5679 5674 5669 5663 5659 5657 5654 5648 5645 5643 5643 5640 5638 5636 5634 5632 5629 5626 5623 5620 5617 5613
5715 5713 5710 5707 5706 5704 5701 5697 5695 5693 5692 5691 5688 5685 5682 5679 5674 5669 5662 5657 5651 5649 5648 5643 5639 5636 5634 5632 5630 5628 5626 5623 5621 5618 5614 5611 5608 5604
5708 5706 5705 5702 5700 5698 5695 5691 5688 5686 5685 5684 5681 5679 5676 5672 5669 5665 5660 5653 5647 5643 5643 5638 5633 5628 5625 5624 5622 5620 5618 5615 5612 5609 5606 5603 5599 5595
5701 5699 5698 5696 5694 5692 5690 5688 5685 5682 5679 5676 5673 5671 5668 5665 5662 5660 5656 5652 5645 5641 5639 5634 5628 5623 5618 5615 5613 5612 5610 5607 5604 5601 5598 5595 5591 5587
5696 5694 5692 5691 5688 5686 5683 5681 5679 5676 5672 5669 5665 5662 5660 5657 5655 5653 5651 5647 5644 5640 5636 5631 5625 5619 5613 5608 5605 5604 5602 5599 5596 5593 5590 5587 5583 5580
5692 5690 5687 5684 5682 5679 5677 5675 5672 5668 5665 5661 5657 5655 5653 5652 5649 5646 5643 5640 5637 5634 5630 5627 5622 5616 5611 5605 5600 5597 5594 5592 5589 5586 5582 5579 5576 5572
5685 5682 5679 5677 5674 5672 5669 5667 5665 5661 5658 5654 5652 5649 5647 5644 5641 5638 5634 5631 5626 5623 5622 5620 5617 5612 5605 5601 5596 5592 5588 5585 5582 5578 5574 5571 5568 5564
5677 5673 5670 5666 5664 5662 5660 5659 5657 5654 5651 5648 5645 5642 5640 5637 5633 5630 5626 5622 5618 5615 5612 5610 5608 5604 5601 5596 5590 5586 5582 5579 5576 5572 5567 5562 5560 5557
5670 5666 5662 5660 5657 5655 5652 5650 5648 5646 5645 5642 5639 5636 5633 5629 5626 5622 5619 5615 5611 5608 5605 5602 5598 5594 5590 5587 5586 5581 5577 5573 5570 5566 5561 5556 5553 5552
5663 5660 5657 5654 5652 5649 5647 5645 5642 5641 5638 5635 5632 5629 5626 5623 5620 5616 5612 5607 5604 5601 5598 5595 5591 5586 5581 5578 5578 5577 5572 5568 5563 5559 5555 5550 5547 5546
5655 5653 5651 5649 5647 5644 5641 5638 5636 5634 5631 5628 5625 5622 5620 5617 5614 5610 5606 5602 5598 5595 5592 5588 5585 5581 5577 5574 5571 5569 5567 5562 5557 5553 5548 5544 5541 5539
5649 5647 5645 5643 5641 5638 5635 5633 5630 5627 5625 5622 5619 5616 5613 5610 5607 5604 5600 5597 5592 5588 5585 5582 5581 5578 5574 5568 5562 5560 5559 5557 5553 5548 5542 5536 5531 5527
5644 5641 5639 5637 5634 5631 5628 5626 5623 5620 5617 5615 5612 5609 5606 5603 5600 5596 5593 5589 5585 5582 5579 5577 5574 5569 5564 5560 5556 5553 5550 5548 5545 5542 5538 5534 5527 5522
5638 5635 5633 5630 5628 5625 5622 5618 5616 5613 5610 5607 5604 5601 5598 5595 5593 5589 5586 5583 5579 5575 5571 5568 5565 5561 5557 5554 5550 5546 5543 5539 5535 5532 5530 5528 5525 5522